Terug naar catalogus

STARLINK-32601

ActiefCommunicatieVLEO
NORAD 61973·PAYLOAD·🇺🇸 United States

Gelanceerd Nov 14, 2024 vanaf Cape Canaveral Space Force Station

Loading…

Volgende Passages (komende 24 uur)

TLE

VersSource: CelesTrak SupGP

Epoch: Sep 15, 2026, 02:56 UTC

1 61973C 24210Q   26258.12270833 -.00033008  00000+0 -11957-2 0  2582
2 61973  42.9999 189.6567 0000980 274.9134 146.0518 15.27591024    11

Volg STARLINK-32601 in realtime met AllMySat

Download on the App Store